Weather Roundup
Issued by NWS Corpus Christi, TX

Home | Current Version | Previous Version | Text Only | Print | Product List | Glossary On
Versions: 1 2 3 4 5 6 7 8 9 10 11 12 13 14 15 16 17 18 19 20 21 22 23 24 25 26 27 28 29 30 31 32 33 34 35 36 37 38 39 40 41 42 43 44 45 46 47 48 49 50
132
ASUS44 KCRP 071110
HRRCRP

SOUTH TEXAS REGIONAL WEATHER ROUNDUP
NATIONAL WEATHER SERVICE CORPUS CHRISTI TX
500 AM CST WED DEC 07 2016


TXZ229>244-071200-
...CORPUS CHRISTI AREA OBSERVATIONS...

CITY           SKY/WX    TMP DP  RH WIND       PRES   REMARKS
CORPUS CHRISTI PTCLDY    52  51  97 NE9       30.00F
NAS CORPUS CHR PTCLDY    54  54 100 NE12      30.00S
ROCKPORT         N/A    N/A N/A N/A MISG      30.01F
ALICE          CLOUDY    50  49  96 NE7       30.01S
ORANGE GROVE   MOCLDY    49  49 100 NE7       30.02S
FALFURRIAS     CLOUDY    55  50  84 NE6       29.99F
$$

...VICTORIA AREA OBSERVATIONS...

CITY           SKY/WX    TMP DP  RH WIND       PRES   REMARKS
VICTORIA       CLOUDY    52  47  83 NE10      30.03S HAZE
BEEVILLE       MOCLDY    47  47 100 NE6       30.02R
PLEASANTON     PTCLDY    44  43  97 CALM      30.04R FOG
SAN ANTONIO    CLEAR     44  42  93 CALM      30.03S
$$

...LAREDO AREA OBSERVATIONS...

CITY           SKY/WX    TMP DP  RH WIND       PRES   REMARKS
LAREDO         CLOUDY    52  47  83 NE8       30.01S VSB 1/4
COTULLA        CLOUDY    49  45  86 CALM      30.05R
DEL RIO        CLOUDY    43  42  97 E5        30.02S
MCALLEN        CLOUDY    62  57  83 N7        29.98S
HEBBRONVILLE   CLOUDY    51  47  86 E5        30.01S
$$

...OTHER TEXAS OBSERVATIONS...

CITY           SKY/WX    TMP DP  RH WIND       PRES   REMARKS
BROWNSVILLE    PTCLDY    66  66 100 E6        29.95F
HOUSTON        MOCLDY    50  47  89 N3        30.05S
COL. STATION   PTCLDY    47  46  97 NE5       30.05S
AUSTIN         CLEAR     37  36  96 CALM      30.04F
WACO           CLOUDY    46  43  89 NE5       30.05F
FORT WORTH     PTCLDY    36  32  85 N7        30.04F
WICHITA FALLS  CLOUDY    30  26  85 N3        30.05F
LUBBOCK        CLOUDY    29  26  89 SE5       29.93F
EL PASO        CLOUDY    50  31  48 SW8       29.94F
$$

...MARINE OBSERVATIONS...

STATION/POSITION TIME  SKY/WX   TEMP    WIND        PRES    VSBY  WAVE   SWELL
                                AIR SEA DIR/SP/G                  HT/PER HT/PER
                 (UTC)          (F)     (DEG/KT/KT) (MB)    (MI)  (FT/S) (FT/S)
PORT ARANSAS     1000            55 64   10/ 11/ 13 1015.8F
BUOY 90 E PORT A 1050            68 76   30/ 10/ 12 1015.6F         3/ 5   2/ 5
BUOY 45 SE BAFFI 1050            71 76   70/ 12/ 14 1014.3F         4/ 6   2/ 6
BUOY 200 E PT IS 1050            74 77  140/  4/  6 1015.7S         2/ 7   2/ 7
BUOY 15 E GALVES 1050            57 65   20/ 10/ 14 1016.7R         2/ 3   2/ 8
$$




USA.gov is the U.S. government's official web portal to all federal, state and local government web resources and services.